Time,TemperatureF,DewpointF,PressureIn,WindDirection,WindDirectionDegrees,WindSpeedMPH,WindSpeedGustMPH,Humidity,HourlyPrecipIn,Conditions,Clouds,dailyrainin,SoftwareType,DateUTC
2013-04-10 00:00:00,65.4,57.3,30.19,SSE,148,0.0,0.0,75,0.00,,,0.00,Wunderground v.1.15,2013-04-10 04:00:00,
2013-04-10 00:02:00,65.3,57.2,30.19,SSE,148,0.0,0.0,75,0.00,,,0.00,Wunderground v.1.15,2013-04-10 04:02:00,
2013-04-10 00:04:00,65.3,57.5,30.19,SSE,148,0.0,1.0,76,0.00,,,0.00,Wunderground v.1.15,2013-04-10 04:04:00,
2013-04-10 00:05:00,65.2,57.4,30.19,SSE,148,0.0,1.0,76,0.00,,,0.00,Wunderground v.1.15,2013-04-10 04:05:00,
2013-04-10 00:11:00,65.0,57.2,30.19,SSE,148,0.0,0.0,76,0.00,,,0.00,Wunderground v.1.15,2013-04-10 04:11:00,
2013-04-10 00:16:00,64.8,57.4,30.19,SSE,148,0.0,0.0,77,0.00,,,0.00,Wunderground v.1.15,2013-04-10 04:16:00,
2013-04-10 00:22:00,64.5,57.1,30.19,SSE,148,1.0,1.0,77,0.00,,,0.00,Wunderground v.1.15,2013-04-10 04:22:00,
2013-04-10 00:28:00,64.1,57.1,30.19,SSE,148,0.0,2.0,78,0.00,,,0.00,Wunderground v.1.15,2013-04-10 04:28:00,
2013-04-10 00:33:00,63.7,56.7,30.19,SSE,148,0.0,1.0,78,0.00,,,0.00,Wunderground v.1.15,2013-04-10 04:33:00,
2013-04-10 00:39:00,63.3,56.7,30.19,SSE,148,0.0,1.0,79,0.00,,,0.00,Wunderground v.1.15,2013-04-10 04:39:00,
2013-04-10 00:44:00,63.0,56.4,30.19,SE,142,0.0,1.0,79,0.00,,,0.00,Wunderground v.1.15,2013-04-10 04:44:00,
2013-04-10 00:50:00,62.8,56.5,30.19,ESE,102,1.0,1.0,80,0.00,,,0.00,Wunderground v.1.15,2013-04-10 04:50:00,
2013-04-10 00:55:00,62.6,56.3,30.19,East,95,0.0,1.0,80,0.00,,,0.00,Wunderground v.1.15,2013-04-10 04:55:00,
2013-04-10 01:00:00,62.4,56.1,30.19,East,95,0.0,0.0,80,0.00,,,0.00,Wunderground v.1.15,2013-04-10 05:00:00,
2013-04-10 01:05:00,62.1,56.2,30.19,East,92,0.0,1.0,81,0.00,,,0.00,Wunderground v.1.15,2013-04-10 05:05:00,
2013-04-10 01:10:00,62.0,56.1,30.20,East,92,0.0,0.0,81,0.00,,,0.00,Wunderground v.1.15,2013-04-10 05:10:00,
2013-04-10 01:16:00,61.9,56.3,30.19,East,92,0.0,0.0,82,0.00,,,0.00,Wunderground v.1.15,2013-04-10 05:16:00,
2013-04-10 01:21:00,61.9,56.0,30.19,East,92,0.0,0.0,81,0.00,,,0.00,Wunderground v.1.15,2013-04-10 05:21:00,
2013-04-10 01:27:00,61.9,56.0,30.19,East,92,0.0,0.0,81,0.00,,,0.00,Wunderground v.1.15,2013-04-10 05:27:00,
2013-04-10 01:32:00,61.9,56.0,30.19,East,92,0.0,0.0,81,0.00,,,0.00,Wunderground v.1.15,2013-04-10 05:32:00,
2013-04-10 01:37:00,61.8,56.2,30.19,East,92,0.0,1.0,82,0.00,,,0.00,Wunderground v.1.15,2013-04-10 05:37:00,
2013-04-10 01:43:00,61.7,56.1,30.19,East,92,0.0,0.0,82,0.00,,,0.00,Wunderground v.1.15,2013-04-10 05:43:00,
2013-04-10 01:48:00,61.6,56.0,30.19,East,92,0.0,0.0,82,0.00,,,0.00,Wunderground v.1.15,2013-04-10 05:48:00,
2013-04-10 01:54:00,61.5,56.0,30.19,East,92,0.0,0.0,82,0.00,,,0.00,Wunderground v.1.15,2013-04-10 05:54:00,
2013-04-10 01:59:00,61.4,55.9,30.19,East,92,0.0,0.0,82,0.00,,,0.00,Wunderground v.1.15,2013-04-10 05:59:00,
2013-04-10 02:04:00,61.2,56.0,30.19,East,92,0.0,1.0,83,0.00,,,0.00,Wunderground v.1.15,2013-04-10 06:04:00,
2013-04-10 02:09:00,61.1,55.9,30.18,East,92,0.0,1.0,83,0.00,,,0.00,Wunderground v.1.15,2013-04-10 06:09:00,
2013-04-10 02:14:00,61.0,55.8,30.18,East,94,0.0,1.0,83,0.00,,,0.00,Wunderground v.1.15,2013-04-10 06:14:00,
2013-04-10 02:19:00,61.2,56.0,30.18,SSE,158,0.0,3.0,83,0.00,,,0.00,Wunderground v.1.15,2013-04-10 06:19:00,
2013-04-10 02:24:00,61.4,56.2,30.17,SSE,163,0.0,2.0,83,0.00,,,0.00,Wunderground v.1.15,2013-04-10 06:24:00,
2013-04-10 02:29:00,61.3,56.1,30.17,SSE,163,0.0,2.0,83,0.00,,,0.00,Wunderground v.1.15,2013-04-10 06:29:00,
2013-04-10 02:34:00,61.2,56.0,30.18,SE,146,0.0,1.0,83,0.00,,,0.00,Wunderground v.1.15,2013-04-10 06:34:00,
2013-04-10 02:39:00,61.1,55.9,30.17,SE,146,0.0,1.0,83,0.00,,,0.00,Wunderground v.1.15,2013-04-10 06:39:00,
2013-04-10 02:44:00,61.0,55.8,30.17,SE,146,0.0,0.0,83,0.00,,,0.00,Wunderground v.1.15,2013-04-10 06:44:00,
2013-04-10 02:49:00,60.8,55.6,30.17,SE,146,0.0,0.0,83,0.00,,,0.00,Wunderground v.1.15,2013-04-10 06:49:00,
2013-04-10 02:54:00,60.6,55.4,30.17,SE,146,0.0,0.0,83,0.00,,,0.00,Wunderground v.1.15,2013-04-10 06:54:00,
2013-04-10 03:00:00,60.1,55.2,30.17,SE,146,0.0,0.0,84,0.00,,,0.00,Wunderground v.1.15,2013-04-10 07:00:00,
2013-04-10 03:05:00,59.7,54.9,30.16,SE,146,0.0,0.0,84,0.00,,,0.00,Wunderground v.1.15,2013-04-10 07:05:00,
2013-04-10 03:10:00,59.6,55.1,30.17,SE,146,0.0,0.0,85,0.00,,,0.00,Wunderground v.1.15,2013-04-10 07:10:00,
2013-04-10 03:15:00,59.3,54.8,30.16,SE,146,0.0,0.0,85,0.00,,,0.00,Wunderground v.1.15,2013-04-10 07:15:00,
2013-04-10 03:20:00,58.8,54.6,30.17,SE,146,0.0,0.0,86,0.00,,,0.00,Wunderground v.1.15,2013-04-10 07:20:00,
2013-04-10 03:25:00,58.7,54.5,30.17,SE,146,0.0,0.0,86,0.00,,,0.00,Wunderground v.1.15,2013-04-10 07:25:00,
2013-04-10 03:30:00,58.2,54.3,30.16,SE,146,0.0,0.0,87,0.00,,,0.00,Wunderground v.1.15,2013-04-10 07:30:00,
2013-04-10 03:35:00,57.9,54.4,30.16,SE,146,0.0,0.0,88,0.00,,,0.00,Wunderground v.1.15,2013-04-10 07:35:00,
2013-04-10 03:40:00,57.6,54.4,30.16,SE,146,0.0,0.0,89,0.00,,,0.00,Wunderground v.1.15,2013-04-10 07:40:00,
2013-04-10 03:45:00,57.5,54.3,30.17,SE,146,0.0,0.0,89,0.00,,,0.00,Wunderground v.1.15,2013-04-10 07:45:00,
2013-04-10 03:50:00,57.4,54.2,30.16,SE,146,0.0,0.0,89,0.00,,,0.00,Wunderground v.1.15,2013-04-10 07:50:00,
2013-04-10 03:55:00,57.2,54.0,30.16,SE,146,0.0,0.0,89,0.00,,,0.00,Wunderground v.1.15,2013-04-10 07:55:00,
2013-04-10 04:00:00,57.1,54.2,30.16,SE,146,0.0,0.0,90,0.00,,,0.00,Wunderground v.1.15,2013-04-10 08:00:00,
2013-04-10 04:05:00,57.1,54.2,30.16,SE,146,0.0,0.0,90,0.00,,,0.00,Wunderground v.1.15,2013-04-10 08:05:00,
2013-04-10 04:10:00,57.1,54.2,30.16,SE,146,0.0,0.0,90,0.00,,,0.00,Wunderground v.1.15,2013-04-10 08:10:00,
2013-04-10 04:15:00,57.1,54.2,30.16,SE,146,0.0,0.0,90,0.00,,,0.00,Wunderground v.1.15,2013-04-10 08:15:00,
2013-04-10 04:20:00,57.1,54.2,30.16,SE,146,0.0,0.0,90,0.00,,,0.00,Wunderground v.1.15,2013-04-10 08:20:00,
2013-04-10 04:25:00,57.3,54.4,30.16,SE,146,0.0,0.0,90,0.00,,,0.00,Wunderground v.1.15,2013-04-10 08:25:00,
2013-04-10 04:30:00,57.3,54.4,30.16,SE,146,0.0,0.0,90,0.00,,,0.00,Wunderground v.1.15,2013-04-10 08:30:00,
2013-04-10 04:35:00,57.4,54.5,30.16,SE,146,0.0,0.0,90,0.00,,,0.00,Wunderground v.1.15,2013-04-10 08:35:00,
2013-04-10 04:40:00,57.4,54.2,30.16,SE,146,0.0,0.0,89,0.00,,,0.00,Wunderground v.1.15,2013-04-10 08:40:00,
2013-04-10 04:45:00,57.2,54.0,30.16,SE,146,0.0,0.0,89,0.00,,,0.00,Wunderground v.1.15,2013-04-10 08:45:00,
2013-04-10 04:50:00,57.0,53.8,30.16,SE,146,0.0,0.0,89,0.00,,,0.00,Wunderground v.1.15,2013-04-10 08:50:00,
2013-04-10 04:55:00,56.9,54.0,30.16,SE,146,0.0,0.0,90,0.00,,,0.00,Wunderground v.1.15,2013-04-10 08:55:00,
2013-04-10 05:00:00,56.9,54.0,30.16,SE,146,0.0,0.0,90,0.00,,,0.00,Wunderground v.1.15,2013-04-10 09:00:00,
2013-04-10 05:05:00,56.7,53.5,30.16,SE,146,0.0,0.0,89,0.00,,,0.00,Wunderground v.1.15,2013-04-10 09:05:00,
2013-04-10 05:10:00,56.4,53.2,30.16,SE,146,0.0,0.0,89,0.00,,,0.00,Wunderground v.1.15,2013-04-10 09:10:00,
2013-04-10 05:15:00,56.0,52.8,30.16,SE,146,0.0,0.0,89,0.00,,,0.00,Wunderground v.1.15,2013-04-10 09:15:00,
2013-04-10 05:20:00,55.6,52.7,30.16,SE,146,0.0,0.0,90,0.00,,,0.00,Wunderground v.1.15,2013-04-10 09:20:00,
2013-04-10 05:26:00,55.2,52.6,30.16,SE,146,0.0,0.0,91,0.00,,,0.00,Wunderground v.1.15,2013-04-10 09:26:00,
2013-04-10 05:31:00,54.8,52.2,30.16,SE,146,0.0,0.0,91,0.00,,,0.00,Wunderground v.1.15,2013-04-10 09:31:00,
2013-04-10 05:36:00,54.5,52.2,30.16,SE,146,0.0,0.0,92,0.00,,,0.00,Wunderground v.1.15,2013-04-10 09:36:00,
2013-04-10 05:41:00,54.2,51.9,30.16,SE,146,0.0,0.0,92,0.00,,,0.00,Wunderground v.1.15,2013-04-10 09:41:00,
2013-04-10 05:46:00,53.9,51.9,30.16,SE,146,0.0,1.0,93,0.00,,,0.00,Wunderground v.1.15,2013-04-10 09:46:00,
2013-04-10 05:51:00,53.6,51.6,30.16,SE,146,0.0,0.0,93,0.00,,,0.00,Wunderground v.1.15,2013-04-10 09:51:00,
2013-04-10 05:56:00,53.3,51.3,30.16,SE,146,0.0,0.0,93,0.00,,,0.00,Wunderground v.1.15,2013-04-10 09:56:00,
2013-04-10 06:01:00,53.1,51.4,30.16,SE,146,0.0,0.0,94,0.00,,,0.00,Wunderground v.1.15,2013-04-10 10:01:00,
2013-04-10 06:06:00,52.9,51.2,30.16,SE,146,0.0,0.0,94,0.00,,,0.00,Wunderground v.1.15,2013-04-10 10:06:00,
2013-04-10 06:11:00,52.8,51.4,30.16,SE,146,0.0,0.0,95,0.00,,,0.00,Wunderground v.1.15,2013-04-10 10:11:00,
2013-04-10 06:16:00,52.6,51.2,30.16,SE,146,0.0,0.0,95,0.00,,,0.00,Wunderground v.1.15,2013-04-10 10:16:00,
2013-04-10 06:21:00,52.4,51.0,30.16,SE,146,0.0,0.0,95,0.00,,,0.00,Wunderground v.1.15,2013-04-10 10:21:00,
2013-04-10 06:26:00,52.2,50.8,30.16,SE,146,0.0,0.0,95,0.00,,,0.00,Wunderground v.1.15,2013-04-10 10:26:00,
2013-04-10 06:31:00,51.9,50.5,30.16,SE,146,0.0,0.0,95,0.00,,,0.00,Wunderground v.1.15,2013-04-10 10:31:00,
2013-04-10 06:36:00,51.7,50.6,30.16,SE,146,0.0,0.0,96,0.00,,,0.00,Wunderground v.1.15,2013-04-10 10:36:00,
2013-04-10 06:41:00,51.7,50.9,30.16,SE,146,0.0,1.0,97,0.00,,,0.00,Wunderground v.1.15,2013-04-10 10:41:00,
2013-04-10 06:46:00,51.6,50.5,30.16,SE,146,0.0,1.0,96,0.00,,,0.00,Wunderground v.1.15,2013-04-10 10:46:00,
2013-04-10 06:51:00,51.5,50.4,30.16,SE,146,0.0,0.0,96,0.00,,,0.00,Wunderground v.1.15,2013-04-10 10:51:00,
2013-04-10 06:56:00,51.3,50.5,30.17,SE,146,0.0,0.0,97,0.00,,,0.00,Wunderground v.1.15,2013-04-10 10:56:00,
2013-04-10 07:01:00,51.2,50.4,30.17,SE,146,0.0,0.0,97,0.00,,,0.00,Wunderground v.1.15,2013-04-10 11:01:00,
2013-04-10 07:06:00,51.0,49.9,30.17,SE,146,0.0,0.0,96,0.00,,,0.00,Wunderground v.1.15,2013-04-10 11:06:00,
2013-04-10 07:12:00,50.8,50.0,30.17,SE,146,0.0,0.0,97,0.00,,,0.00,Wunderground v.1.15,2013-04-10 11:12:00,
2013-04-10 07:17:00,50.7,49.9,30.18,SE,146,0.0,0.0,97,0.00,,,0.00,Wunderground v.1.15,2013-04-10 11:17:00,
2013-04-10 07:22:00,50.6,49.8,30.18,SE,146,0.0,0.0,97,0.00,,,0.00,Wunderground v.1.15,2013-04-10 11:22:00,
2013-04-10 07:27:00,50.7,50.2,30.17,SE,146,0.0,0.0,98,0.00,,,0.00,Wunderground v.1.15,2013-04-10 11:27:00,
2013-04-10 07:32:00,50.6,49.8,30.17,SE,146,0.0,0.0,97,0.00,,,0.00,Wunderground v.1.15,2013-04-10 11:32:00,
2013-04-10 07:37:00,50.6,50.1,30.17,SE,146,0.0,0.0,98,0.00,,,0.00,Wunderground v.1.15,2013-04-10 11:37:00,
2013-04-10 07:42:00,50.5,50.0,30.17,SE,146,0.0,0.0,98,0.00,,,0.00,Wunderground v.1.15,2013-04-10 11:42:00,
2013-04-10 07:47:00,50.6,50.3,30.17,SE,146,0.0,1.0,99,0.00,,,0.00,Wunderground v.1.15,2013-04-10 11:47:00,
2013-04-10 07:52:00,50.6,50.3,30.18,SE,146,0.0,0.0,99,0.00,,,0.00,Wunderground v.1.15,2013-04-10 11:52:00,
2013-04-10 07:57:00,50.6,50.1,30.18,SE,146,0.0,0.0,98,0.00,,,0.00,Wunderground v.1.15,2013-04-10 11:57:00,
2013-04-10 08:02:00,50.5,50.0,30.18,SE,146,0.0,0.0,98,0.00,,,0.00,Wunderground v.1.15,2013-04-10 12:02:00,
2013-04-10 08:07:00,50.6,50.3,30.18,SE,146,0.0,0.0,99,0.00,,,0.00,Wunderground v.1.15,2013-04-10 12:07:00,
2013-04-10 08:12:00,50.7,50.4,30.18,SE,146,0.0,0.0,99,0.00,,,0.00,Wunderground v.1.15,2013-04-10 12:12:00,
2013-04-10 08:17:00,50.9,50.6,30.17,SE,146,0.0,0.0,99,0.00,,,0.00,Wunderground v.1.15,2013-04-10 12:17:00,
2013-04-10 08:22:00,51.2,51.2,30.17,SE,146,0.0,1.0,100,0.00,,,0.00,Wunderground v.1.15,2013-04-10 12:22:00,
2013-04-10 08:27:00,51.4,51.1,30.18,SE,146,0.0,1.0,99,0.00,,,0.00,Wunderground v.1.15,2013-04-10 12:27:00,
2013-04-10 08:32:00,51.5,51.2,30.18,SE,146,0.0,0.0,99,0.00,,,0.00,Wunderground v.1.15,2013-04-10 12:32:00,
2013-04-10 08:37:00,51.7,51.4,30.18,SE,146,0.0,0.0,99,0.00,,,0.00,Wunderground v.1.15,2013-04-10 12:37:00,
2013-04-10 08:42:00,52.0,51.7,30.18,SE,146,0.0,0.0,99,0.00,,,0.00,Wunderground v.1.15,2013-04-10 12:42:00,
2013-04-10 08:47:00,52.3,52.3,30.18,SE,146,0.0,0.0,100,0.00,,,0.00,Wunderground v.1.15,2013-04-10 12:47:00,
2013-04-10 08:52:00,52.7,52.7,30.18,SE,146,0.0,0.0,100,0.00,,,0.00,Wunderground v.1.15,2013-04-10 12:52:00,
2013-04-10 08:57:00,53.1,52.8,30.18,SE,146,0.0,0.0,99,0.00,,,0.00,Wunderground v.1.15,2013-04-10 12:57:00,
2013-04-10 09:02:00,53.6,53.6,30.17,SE,146,0.0,0.0,100,0.00,,,0.00,Wunderground v.1.15,2013-04-10 13:02:00,
2013-04-10 09:07:00,54.1,53.8,30.18,SE,146,0.0,0.0,99,0.00,,,0.00,Wunderground v.1.15,2013-04-10 13:07:00,
2013-04-10 09:12:00,54.6,54.3,30.18,SE,146,0.0,0.0,99,0.00,,,0.00,Wunderground v.1.15,2013-04-10 13:12:00,
2013-04-10 09:17:00,55.3,54.5,30.18,SE,146,0.0,0.0,97,0.00,,,0.00,Wunderground v.1.15,2013-04-10 13:17:00,
2013-04-10 09:22:00,56.0,54.9,30.18,SE,146,0.0,0.0,96,0.00,,,0.00,Wunderground v.1.15,2013-04-10 13:22:00,
2013-04-10 09:27:00,56.8,55.4,30.18,SE,146,0.0,0.0,95,0.00,,,0.00,Wunderground v.1.15,2013-04-10 13:27:00,
2013-04-10 09:32:00,57.5,55.8,30.18,SE,146,0.0,0.0,94,0.00,,,0.00,Wunderground v.1.15,2013-04-10 13:32:00,
2013-04-10 09:38:00,58.3,56.6,30.18,SE,146,0.0,0.0,94,0.00,,,0.00,Wunderground v.1.15,2013-04-10 13:38:00,
2013-04-10 09:43:00,59.2,56.6,30.18,SE,146,0.0,0.0,91,0.00,,,0.00,Wunderground v.1.15,2013-04-10 13:43:00,
2013-04-10 09:48:00,60.1,57.2,30.18,SE,146,0.0,0.0,90,0.00,,,0.00,Wunderground v.1.15,2013-04-10 13:48:00,
2013-04-10 09:53:00,61.0,57.4,30.18,SE,146,1.0,2.0,88,0.00,,,0.00,Wunderground v.1.15,2013-04-10 13:53:00,
2013-04-10 09:58:00,61.9,57.7,30.18,SSE,154,2.0,3.0,86,0.00,,,0.00,Wunderground v.1.15,2013-04-10 13:58:00,
2013-04-10 10:03:00,62.9,58.0,30.18,SSE,163,1.0,2.0,84,0.00,,,0.00,Wunderground v.1.15,2013-04-10 14:03:00,
2013-04-10 10:08:00,63.9,58.6,30.17,SSE,162,0.0,2.0,83,0.00,,,0.00,Wunderground v.1.15,2013-04-10 14:08:00,
2013-04-10 10:13:00,64.8,58.5,30.18,South,182,0.0,3.0,80,0.00,,,0.00,Wunderground v.1.15,2013-04-10 14:13:00,
2013-04-10 10:18:00,65.6,58.9,30.18,South,182,0.0,3.0,79,0.00,,,0.00,Wunderground v.1.15,2013-04-10 14:18:00,
2013-04-10 10:23:00,66.3,59.2,30.18,South,173,0.0,1.0,78,0.00,,,0.00,Wunderground v.1.15,2013-04-10 14:23:00,
2013-04-10 10:28:00,67.0,60.3,30.18,South,174,0.0,2.0,79,0.00,,,0.00,Wunderground v.1.15,2013-04-10 14:28:00,
2013-04-10 10:33:00,67.8,60.0,30.18,South,174,0.0,1.0,76,0.00,,,0.00,Wunderground v.1.15,2013-04-10 14:33:00,
2013-04-10 10:38:00,68.4,60.5,30.18,South,174,0.0,2.0,76,0.00,,,0.00,Wunderground v.1.15,2013-04-10 14:38:00,
2013-04-10 10:43:00,68.9,60.3,30.18,South,174,0.0,1.0,74,0.00,,,0.00,Wunderground v.1.15,2013-04-10 14:43:00,
2013-04-10 10:48:00,69.5,60.8,30.18,South,174,0.0,1.0,74,0.00,,,0.00,Wunderground v.1.15,2013-04-10 14:48:00,
2013-04-10 10:54:00,69.9,60.5,30.18,South,174,0.0,1.0,72,0.00,,,0.00,Wunderground v.1.15,2013-04-10 14:54:00,
2013-04-10 10:58:00,70.1,60.7,30.17,South,174,0.0,1.0,72,0.00,,,0.00,Wunderground v.1.15,2013-04-10 14:58:00,
2013-04-10 11:03:00,70.4,60.9,30.17,South,174,0.0,0.0,72,0.00,,,0.00,Wunderground v.1.15,2013-04-10 15:03:00,
2013-04-10 11:08:00,71.0,61.5,30.17,South,174,0.0,2.0,72,0.00,,,0.00,Wunderground v.1.15,2013-04-10 15:08:00,
2013-04-10 11:14:00,71.5,60.8,30.17,South,174,2.0,2.0,69,0.00,,,0.00,Wunderground v.1.15,2013-04-10 15:14:00,
2013-04-10 11:18:00,72.2,61.0,30.17,South,171,0.0,2.0,68,0.00,,,0.00,Wunderground v.1.15,2013-04-10 15:18:00,
2013-04-10 11:24:00,72.7,61.9,30.17,South,180,1.0,2.0,69,0.00,,,0.00,Wunderground v.1.15,2013-04-10 15:24:00,
2013-04-10 11:29:00,73.0,61.8,30.17,South,180,0.0,2.0,68,0.00,,,0.00,Wunderground v.1.15,2013-04-10 15:29:00,
2013-04-10 11:34:00,73.3,61.3,30.17,South,180,1.0,3.0,66,0.00,,,0.00,Wunderground v.1.15,2013-04-10 15:34:00,
2013-04-10 11:39:00,73.8,61.3,30.17,South,180,1.0,3.0,65,0.00,,,0.00,Wunderground v.1.15,2013-04-10 15:39:00,
2013-04-10 11:44:00,74.3,61.8,30.18,South,180,2.0,2.0,65,0.00,,,0.00,Wunderground v.1.15,2013-04-10 15:44:00,
2013-04-10 11:49:00,74.7,62.6,30.17,South,180,1.0,2.0,66,0.00,,,0.00,Wunderground v.1.15,2013-04-10 15:49:00,
2013-04-10 11:54:00,75.1,62.1,30.17,South,180,1.0,1.0,64,0.00,,,0.00,Wunderground v.1.15,2013-04-10 15:54:00,
2013-04-10 11:59:00,75.5,62.5,30.17,South,180,1.0,1.0,64,0.00,,,0.00,Wunderground v.1.15,2013-04-10 15:59:00,
2013-04-10 12:04:00,76.0,62.9,30.17,South,180,0.0,1.0,64,0.00,,,0.00,Wunderground v.1.15,2013-04-10 16:04:00,
2013-04-10 12:09:00,76.3,62.3,30.17,South,180,0.0,2.0,62,0.00,,,0.00,Wunderground v.1.15,2013-04-10 16:09:00,
2013-04-10 12:14:00,76.7,63.6,30.16,NE,50,1.0,2.0,64,0.00,,,0.00,Wunderground v.1.15,2013-04-10 16:14:00,
2013-04-10 12:19:00,77.0,63.4,30.16,NNE,33,0.0,4.0,63,0.00,,,0.00,Wunderground v.1.15,2013-04-10 16:19:00,
2013-04-10 12:24:00,77.4,62.9,30.16,NNE,27,1.0,4.0,61,0.00,,,0.00,Wunderground v.1.15,2013-04-10 16:24:00,
2013-04-10 12:29:00,77.6,63.1,30.16,North,355,0.0,4.0,61,0.00,,,0.00,Wunderground v.1.15,2013-04-10 16:29:00,
2013-04-10 12:34:00,77.6,62.6,30.16,NNE,28,1.0,4.0,60,0.00,,,0.00,Wunderground v.1.15,2013-04-10 16:34:00,
2013-04-10 12:39:00,77.7,62.2,30.15,WNW,282,1.0,4.0,59,0.00,,,0.00,Wunderground v.1.15,2013-04-10 16:39:00,
2013-04-10 12:44:00,77.7,62.7,30.15,NW,319,2.0,4.0,60,0.00,,,0.00,Wunderground v.1.15,2013-04-10 16:44:00,
2013-04-10 12:49:00,77.7,62.2,30.15,West,273,0.0,4.0,59,0.00,,,0.00,Wunderground v.1.15,2013-04-10 16:49:00,
2013-04-10 12:54:00,78.2,62.7,30.15,NE,49,2.0,4.0,59,0.00,,,0.00,Wunderground v.1.15,2013-04-10 16:54:00,
2013-04-10 12:59:00,78.5,62.5,30.14,NE,42,1.0,4.0,58,0.00,,,0.00,Wunderground v.1.15,2013-04-10 16:59:00,
2013-04-10 13:04:00,78.7,62.7,30.14,NE,42,0.0,1.0,58,0.00,,,0.00,Wunderground v.1.15,2013-04-10 17:04:00,
2013-04-10 13:09:00,79.2,62.1,30.14,NE,42,0.0,1.0,56,0.00,,,0.00,Wunderground v.1.15,2013-04-10 17:09:00,
2013-04-10 13:14:00,79.7,62.6,30.14,NE,42,0.0,3.0,56,0.00,,,0.00,Wunderground v.1.15,2013-04-10 17:14:00,
2013-04-10 13:19:00,80.0,62.9,30.14,West,275,0.0,3.0,56,0.00,,,0.00,Wunderground v.1.15,2013-04-10 17:19:00,
2013-04-10 13:24:00,80.4,63.3,30.14,South,173,1.0,1.0,56,0.00,,,0.00,Wunderground v.1.15,2013-04-10 17:24:00,
2013-04-10 13:29:00,80.7,62.0,30.13,SSW,201,0.0,3.0,53,0.00,,,0.00,Wunderground v.1.15,2013-04-10 17:29:00,
2013-04-10 13:34:00,80.7,62.0,30.13,SSW,201,0.0,3.0,53,0.00,,,0.00,Wunderground v.1.15,2013-04-10 17:34:00,
2013-04-10 13:39:00,80.9,62.2,30.13,SSE,155,0.0,3.0,53,0.00,,,0.00,Wunderground v.1.15,2013-04-10 17:39:00,
2013-04-10 13:44:00,81.2,61.9,30.12,SE,131,2.0,2.0,52,0.00,,,0.00,Wunderground v.1.15,2013-04-10 17:44:00,
2013-04-10 13:49:00,81.4,62.1,30.12,NE,40,0.0,4.0,52,0.00,,,0.00,Wunderground v.1.15,2013-04-10 17:49:00,
2013-04-10 13:54:00,81.6,62.8,30.12,SSW,202,0.0,3.0,53,0.00,,,0.00,Wunderground v.1.15,2013-04-10 17:54:00,
2013-04-10 13:59:00,81.8,62.5,30.11,SSW,213,0.0,3.0,52,0.00,,,0.00,Wunderground v.1.15,2013-04-10 17:59:00,
2013-04-10 14:04:00,81.9,62.0,30.11,South,182,8.0,8.0,51,0.00,,,0.00,Wunderground v.1.15,2013-04-10 18:04:00,
2013-04-10 14:09:00,82.1,62.7,30.11,SSE,168,0.0,8.0,52,0.00,,,0.00,Wunderground v.1.15,2013-04-10 18:09:00,
2013-04-10 14:14:00,82.3,61.2,30.11,SSW,198,1.0,9.0,49,0.00,,,0.00,Wunderground v.1.15,2013-04-10 18:14:00,
2013-04-10 14:19:00,82.3,61.2,30.10,SSE,162,4.0,9.0,49,0.00,,,0.00,Wunderground v.1.15,2013-04-10 18:19:00,
2013-04-10 14:24:00,82.3,62.4,30.10,SSW,193,3.0,9.0,51,0.00,,,0.00,Wunderground v.1.15,2013-04-10 18:24:00,
2013-04-10 14:30:00,82.4,63.5,30.10,SSE,150,1.0,2.0,53,0.00,,,0.00,Wunderground v.1.15,2013-04-10 18:30:00,
2013-04-10 14:35:00,82.5,63.6,30.10,ESE,121,0.0,6.0,53,0.00,,,0.00,Wunderground v.1.15,2013-04-10 18:35:00,
2013-04-10 14:40:00,82.5,63.1,30.10,South,175,1.0,2.0,52,0.00,,,0.00,Wunderground v.1.15,2013-04-10 18:40:00,
2013-04-10 14:45:00,82.5,64.2,30.10,South,182,1.0,5.0,54,0.00,,,0.00,Wunderground v.1.15,2013-04-10 18:45:00,
2013-04-10 14:50:00,82.6,64.3,30.09,South,186,0.0,1.0,54,0.00,,,0.00,Wunderground v.1.15,2013-04-10 18:50:00,
2013-04-10 14:55:00,82.7,63.3,30.09,SSW,202,1.0,10.0,52,0.00,,,0.00,Wunderground v.1.15,2013-04-10 18:55:00,
2013-04-10 15:00:00,82.6,63.7,30.09,South,176,2.0,4.0,53,0.00,,,0.00,Wunderground v.1.15,2013-04-10 19:00:00,
2013-04-10 15:05:00,82.7,63.8,30.09,NNE,15,1.0,4.0,53,0.00,,,0.00,Wunderground v.1.15,2013-04-10 19:05:00,
2013-04-10 15:10:00,82.8,64.5,30.10,South,183,2.0,2.0,54,0.00,,,0.00,Wunderground v.1.15,2013-04-10 19:10:00,
2013-04-10 15:15:00,83.0,64.1,30.09,South,177,4.0,7.0,53,0.00,,,0.00,Wunderground v.1.15,2013-04-10 19:15:00,
2013-04-10 15:20:00,83.0,63.6,30.09,SSE,158,0.0,3.0,52,0.00,,,0.00,Wunderground v.1.15,2013-04-10 19:20:00,
2013-04-10 15:25:00,82.9,64.5,30.09,South,186,3.0,5.0,54,0.00,,,0.00,Wunderground v.1.15,2013-04-10 19:25:00,
2013-04-10 15:30:00,82.8,63.9,30.09,SE,146,1.0,2.0,53,0.00,,,0.00,Wunderground v.1.15,2013-04-10 19:30:00,
2013-04-10 15:35:00,83.0,65.2,30.08,South,180,6.0,9.0,55,0.00,,,0.00,Wunderground v.1.15,2013-04-10 19:35:00,
2013-04-10 15:40:00,83.3,64.4,30.08,NNE,28,3.0,3.0,53,0.00,,,0.00,Wunderground v.1.15,2013-04-10 19:40:00,
2013-04-10 15:45:00,83.4,64.5,30.08,South,190,1.0,8.0,53,0.00,,,0.00,Wunderground v.1.15,2013-04-10 19:45:00,
2013-04-10 15:50:00,83.4,64.5,30.08,SE,142,4.0,4.0,53,0.00,,,0.00,Wunderground v.1.15,2013-04-10 19:50:00,
2013-04-10 15:55:00,83.6,64.7,30.07,NE,46,0.0,5.0,53,0.00,,,0.00,Wunderground v.1.15,2013-04-10 19:55:00,
2013-04-10 16:00:00,83.8,64.8,30.07,NNW,338,0.0,1.0,53,0.00,,,0.00,Wunderground v.1.15,2013-04-10 20:00:00,
2013-04-10 16:05:00,83.9,64.4,30.07,NNW,334,0.0,3.0,52,0.00,,,0.00,Wunderground v.1.15,2013-04-10 20:05:00,
2013-04-10 16:10:00,83.8,64.3,30.07,SSE,161,0.0,2.0,52,0.00,,,0.00,Wunderground v.1.15,2013-04-10 20:10:00,
2013-04-10 16:15:00,83.6,64.1,30.06,SW,218,0.0,6.0,52,0.00,,,0.00,Wunderground v.1.15,2013-04-10 20:15:00,
2013-04-10 16:20:00,83.5,64.0,30.06,South,183,3.0,3.0,52,0.00,,,0.00,Wunderground v.1.15,2013-04-10 20:20:00,
2013-04-10 16:25:00,83.4,63.9,30.06,SSW,209,5.0,10.0,52,0.00,,,0.00,Wunderground v.1.15,2013-04-10 20:25:00,
2013-04-10 16:30:00,82.9,64.0,30.06,South,190,2.0,4.0,53,0.00,,,0.00,Wunderground v.1.15,2013-04-10 20:30:00,
2013-04-10 16:35:00,82.6,63.7,30.06,SSE,164,4.0,7.0,53,0.00,,,0.00,Wunderground v.1.15,2013-04-10 20:35:00,
2013-04-10 16:41:00,82.3,64.5,30.06,West,262,1.0,2.0,55,0.00,,,0.00,Wunderground v.1.15,2013-04-10 20:41:00,
2013-04-10 16:46:00,82.4,63.5,30.06,East,94,6.0,6.0,53,0.00,,,0.00,Wunderground v.1.15,2013-04-10 20:46:00,
2013-04-10 16:51:00,82.3,63.5,30.06,SE,128,2.0,7.0,53,0.00,,,0.00,Wunderground v.1.15,2013-04-10 20:51:00,
2013-04-10 16:56:00,81.9,63.1,30.05,SSE,163,2.0,9.0,53,0.00,,,0.00,Wunderground v.1.15,2013-04-10 20:56:00,
2013-04-10 17:01:00,81.6,62.8,30.05,South,181,1.0,4.0,53,0.00,,,0.00,Wunderground v.1.15,2013-04-10 21:01:00,
2013-04-10 17:06:00,81.2,63.5,30.05,South,176,0.0,10.0,55,0.00,,,0.00,Wunderground v.1.15,2013-04-10 21:06:00,
2013-04-10 17:11:00,80.9,62.7,30.04,SSE,163,4.0,7.0,54,0.00,,,0.00,Wunderground v.1.15,2013-04-10 21:11:00,
2013-04-10 17:16:00,80.7,62.5,30.04,South,170,3.0,11.0,54,0.00,,,0.00,Wunderground v.1.15,2013-04-10 21:16:00,
2013-04-10 17:22:00,80.5,62.8,30.04,East,94,1.0,4.0,55,0.00,,,0.00,Wunderground v.1.15,2013-04-10 21:22:00,
2013-04-10 17:27:00,80.5,62.3,30.04,South,180,3.0,6.0,54,0.00,,,0.00,Wunderground v.1.15,2013-04-10 21:27:00,
2013-04-10 17:32:00,80.7,62.0,30.04,South,188,1.0,6.0,53,0.00,,,0.00,Wunderground v.1.15,2013-04-10 21:32:00,
2013-04-10 17:37:00,80.8,62.1,30.04,SSW,201,13.0,13.0,53,0.00,,,0.00,Wunderground v.1.15,2013-04-10 21:37:00,
2013-04-10 17:42:00,80.8,62.1,30.04,SSE,154,6.0,6.0,53,0.00,,,0.00,Wunderground v.1.15,2013-04-10 21:42:00,
2013-04-10 17:47:00,80.7,62.0,30.04,SSE,165,4.0,9.0,53,0.00,,,0.00,Wunderground v.1.15,2013-04-10 21:47:00,
2013-04-10 17:52:00,80.6,61.9,30.04,South,190,1.0,7.0,53,0.00,,,0.00,Wunderground v.1.15,2013-04-10 21:52:00,
2013-04-10 17:57:00,80.6,61.9,30.04,South,178,4.0,9.0,53,0.00,,,0.00,Wunderground v.1.15,2013-04-10 21:57:00,
2013-04-10 18:02:00,80.5,62.3,30.04,NE,38,3.0,3.0,54,0.00,,,0.00,Wunderground v.1.15,2013-04-10 22:02:00,
2013-04-10 18:07:00,80.4,62.2,30.04,South,172,3.0,7.0,54,0.00,,,0.00,Wunderground v.1.15,2013-04-10 22:07:00,
2013-04-10 18:12:00,80.4,62.2,30.04,SSW,210,3.0,5.0,54,0.00,,,0.00,Wunderground v.1.15,2013-04-10 22:12:00,
2013-04-10 18:17:00,80.3,62.1,30.04,South,176,3.0,6.0,54,0.00,,,0.00,Wunderground v.1.15,2013-04-10 22:17:00,
2013-04-10 18:22:00,80.3,62.7,30.03,SSE,153,0.0,2.0,55,0.00,,,0.00,Wunderground v.1.15,2013-04-10 22:22:00,
2013-04-10 18:27:00,80.3,62.7,30.03,South,186,0.0,2.0,55,0.00,,,0.00,Wunderground v.1.15,2013-04-10 22:27:00,
2013-04-10 18:33:00,80.2,62.6,30.04,South,183,6.0,6.0,55,0.00,,,0.00,Wunderground v.1.15,2013-04-10 22:33:00,
2013-04-10 18:38:00,79.8,62.7,30.03,South,185,0.0,10.0,56,0.00,,,0.00,Wunderground v.1.15,2013-04-10 22:38:00,
2013-04-10 18:43:00,79.4,62.3,30.04,NNE,14,3.0,4.0,56,0.00,,,0.00,Wunderground v.1.15,2013-04-10 22:43:00,
2013-04-10 18:48:00,78.9,61.9,30.03,SSE,167,2.0,11.0,56,0.00,,,0.00,Wunderground v.1.15,2013-04-10 22:48:00,
2013-04-10 18:53:00,78.5,62.0,30.03,South,169,3.0,7.0,57,0.00,,,0.00,Wunderground v.1.15,2013-04-10 22:53:00,
2013-04-10 18:58:00,78.1,62.1,30.03,South,180,1.0,7.0,58,0.00,,,0.00,Wunderground v.1.15,2013-04-10 22:58:00,
2013-04-10 19:03:00,77.7,61.7,30.03,SSW,208,2.0,9.0,58,0.00,,,0.00,Wunderground v.1.15,2013-04-10 23:03:00,
2013-04-10 19:08:00,77.4,61.9,30.03,South,176,2.0,10.0,59,0.00,,,0.00,Wunderground v.1.15,2013-04-10 23:08:00,
2013-04-10 19:13:00,77.2,62.2,30.03,South,173,3.0,3.0,60,0.00,,,0.00,Wunderground v.1.15,2013-04-10 23:13:00,
2013-04-10 19:18:00,76.8,61.9,30.03,SSE,168,1.0,10.0,60,0.00,,,0.00,Wunderground v.1.15,2013-04-10 23:18:00,
2013-04-10 19:23:00,76.5,62.0,30.03,South,175,0.0,9.0,61,0.00,,,0.00,Wunderground v.1.15,2013-04-10 23:23:00,
2013-04-10 19:28:00,76.2,62.2,30.03,SSE,159,0.0,9.0,62,0.00,,,0.00,Wunderground v.1.15,2013-04-10 23:28:00,
2013-04-10 19:33:00,75.9,61.9,30.04,West,261,2.0,5.0,62,0.00,,,0.00,Wunderground v.1.15,2013-04-10 23:33:00,
2013-04-10 19:38:00,75.6,62.1,30.04,South,186,0.0,5.0,63,0.00,,,0.00,Wunderground v.1.15,2013-04-10 23:38:00,
2013-04-10 19:43:00,75.3,61.8,30.04,South,175,2.0,2.0,63,0.00,,,0.00,Wunderground v.1.15,2013-04-10 23:43:00,
2013-04-10 19:49:00,74.9,61.5,30.04,SSE,167,0.0,3.0,63,0.00,,,0.00,Wunderground v.1.15,2013-04-10 23:49:00,
2013-04-10 19:54:00,74.6,61.6,30.04,SE,139,1.0,1.0,64,0.00,,,0.00,Wunderground v.1.15,2013-04-10 23:54:00,
2013-04-10 19:59:00,74.3,61.8,30.04,SSE,166,0.0,2.0,65,0.00,,,0.00,Wunderground v.1.15,2013-04-10 23:59:00,
2013-04-10 20:04:00,73.9,61.4,30.04,South,184,0.0,5.0,65,0.00,,,0.00,Wunderground v.1.15,2013-04-11 00:04:00,
2013-04-10 20:09:00,73.6,61.1,30.04,South,184,0.0,5.0,65,0.00,,,0.00,Wunderground v.1.15,2013-04-11 00:09:00,
2013-04-10 20:14:00,73.3,61.3,30.04,South,181,0.0,1.0,66,0.00,,,0.00,Wunderground v.1.15,2013-04-11 00:14:00,
2013-04-10 20:19:00,73.0,61.0,30.04,SSE,158,0.0,1.0,66,0.00,,,0.00,Wunderground v.1.15,2013-04-11 00:19:00,
2013-04-10 20:24:00,72.7,61.1,30.04,SSE,158,0.0,1.0,67,0.00,,,0.00,Wunderground v.1.15,2013-04-11 00:24:00,
2013-04-10 20:29:00,72.4,60.8,30.04,SSE,158,0.0,1.0,67,0.00,,,0.00,Wunderground v.1.15,2013-04-11 00:29:00,
2013-04-10 20:34:00,72.1,60.5,30.04,South,170,0.0,3.0,67,0.00,,,0.00,Wunderground v.1.15,2013-04-11 00:34:00,
2013-04-10 20:39:00,71.8,60.2,30.04,SSE,149,2.0,5.0,67,0.00,,,0.00,Wunderground v.1.15,2013-04-11 00:39:00,
2013-04-10 20:44:00,71.7,60.6,30.04,SE,144,1.0,3.0,68,0.00,,,0.00,Wunderground v.1.15,2013-04-11 00:44:00,
2013-04-10 20:49:00,71.5,60.4,30.04,SE,132,2.0,3.0,68,0.00,,,0.00,Wunderground v.1.15,2013-04-11 00:49:00,
2013-04-10 20:54:00,71.3,60.2,30.04,SSE,168,0.0,2.0,68,0.00,,,0.00,Wunderground v.1.15,2013-04-11 00:54:00,
2013-04-10 20:59:00,71.1,60.4,30.04,South,173,1.0,3.0,69,0.00,,,0.00,Wunderground v.1.15,2013-04-11 00:59:00,
2013-04-10 21:04:00,70.9,60.2,30.04,South,172,1.0,3.0,69,0.00,,,0.00,Wunderground v.1.15,2013-04-11 01:04:00,
2013-04-10 21:09:00,70.8,60.1,30.04,SSE,165,1.0,4.0,69,0.00,,,0.00,Wunderground v.1.15,2013-04-11 01:09:00,
2013-04-10 21:14:00,70.7,60.0,30.04,SSE,163,0.0,4.0,69,0.00,,,0.00,Wunderground v.1.15,2013-04-11 01:14:00,
2013-04-10 21:19:00,70.5,59.8,30.04,SSE,154,0.0,4.0,69,0.00,,,0.00,Wunderground v.1.15,2013-04-11 01:19:00,
2013-04-10 21:24:00,70.3,60.1,30.04,SSE,153,0.0,2.0,70,0.00,,,0.00,Wunderground v.1.15,2013-04-11 01:24:00,
2013-04-10 21:29:00,70.2,60.0,30.04,SSE,155,0.0,2.0,70,0.00,,,0.00,Wunderground v.1.15,2013-04-11 01:29:00,
2013-04-10 21:34:00,70.0,59.8,30.04,SSE,155,0.0,1.0,70,0.00,,,0.00,Wunderground v.1.15,2013-04-11 01:34:00,
2013-04-10 21:39:00,69.7,59.5,30.04,SSE,155,0.0,1.0,70,0.00,,,0.00,Wunderground v.1.15,2013-04-11 01:39:00,
2013-04-10 21:44:00,69.5,59.3,30.04,SSE,155,0.0,1.0,70,0.00,,,0.00,Wunderground v.1.15,2013-04-11 01:44:00,
2013-04-10 21:49:00,69.3,59.5,30.04,SSE,155,0.0,2.0,71,0.00,,,0.00,Wunderground v.1.15,2013-04-11 01:49:00,
2013-04-10 21:54:00,69.2,59.4,30.04,SSE,155,0.0,1.0,71,0.00,,,0.00,Wunderground v.1.15,2013-04-11 01:54:00,
2013-04-10 22:00:00,69.1,59.3,30.04,SSE,155,0.0,1.0,71,0.00,,,0.00,Wunderground v.1.15,2013-04-11 02:00:00,
2013-04-10 22:05:00,68.9,59.1,30.03,SSE,155,0.0,1.0,71,0.00,,,0.00,Wunderground v.1.15,2013-04-11 02:05:00,
2013-04-10 22:10:00,68.7,59.3,30.04,SSE,155,0.0,1.0,72,0.00,,,0.00,Wunderground v.1.15,2013-04-11 02:10:00,
2013-04-10 22:15:00,68.5,59.1,30.04,SSE,155,0.0,1.0,72,0.00,,,0.00,Wunderground v.1.15,2013-04-11 02:15:00,
2013-04-10 22:20:00,68.2,59.2,30.04,SSE,155,0.0,0.0,73,0.00,,,0.00,Wunderground v.1.15,2013-04-11 02:20:00,
2013-04-10 22:25:00,67.9,58.9,30.03,SSE,155,0.0,1.0,73,0.00,,,0.00,Wunderground v.1.15,2013-04-11 02:25:00,
2013-04-10 22:30:00,67.7,58.7,30.03,SSE,155,1.0,1.0,73,0.00,,,0.00,Wunderground v.1.15,2013-04-11 02:30:00,
2013-04-10 22:35:00,67.5,58.9,30.02,SSE,155,0.0,1.0,74,0.00,,,0.00,Wunderground v.1.15,2013-04-11 02:35:00,
2013-04-10 22:40:00,67.5,58.9,30.03,SSE,155,0.0,0.0,74,0.00,,,0.00,Wunderground v.1.15,2013-04-11 02:40:00,
2013-04-10 22:45:00,67.4,58.8,30.03,SSE,155,0.0,0.0,74,0.00,,,0.00,Wunderground v.1.15,2013-04-11 02:45:00,
2013-04-10 22:50:00,67.2,58.6,30.03,SSE,155,0.0,0.0,74,0.00,,,0.00,Wunderground v.1.15,2013-04-11 02:50:00,
2013-04-10 22:55:00,67.0,58.8,30.03,SSE,155,0.0,0.0,75,0.00,,,0.00,Wunderground v.1.15,2013-04-11 02:55:00,
2013-04-10 23:00:00,66.7,58.5,30.02,SSE,155,0.0,0.0,75,0.00,,,0.00,Wunderground v.1.15,2013-04-11 03:00:00,
2013-04-10 23:05:00,66.4,58.2,30.03,SSE,155,0.0,0.0,75,0.00,,,0.00,Wunderground v.1.15,2013-04-11 03:05:00,
2013-04-10 23:10:00,66.2,58.4,30.03,SSE,155,0.0,0.0,76,0.00,,,0.00,Wunderground v.1.15,2013-04-11 03:10:00,
2013-04-10 23:15:00,66.0,58.2,30.02,SSE,155,0.0,0.0,76,0.00,,,0.00,Wunderground v.1.15,2013-04-11 03:15:00,
2013-04-10 23:20:00,65.8,58.0,30.01,SSE,155,0.0,0.0,76,0.00,,,0.00,Wunderground v.1.15,2013-04-11 03:20:00,
2013-04-10 23:25:00,65.6,57.8,30.01,SSE,155,0.0,0.0,76,0.00,,,0.00,Wunderground v.1.15,2013-04-11 03:25:00,
2013-04-10 23:30:00,65.4,58.0,30.02,SSE,155,0.0,0.0,77,0.00,,,0.00,Wunderground v.1.15,2013-04-11 03:30:00,
2013-04-10 23:35:00,65.0,58.0,30.02,SSE,155,0.0,0.0,78,0.00,,,0.00,Wunderground v.1.15,2013-04-11 03:35:00,
2013-04-10 23:40:00,64.6,57.9,30.03,SSE,155,0.0,0.0,79,0.00,,,0.00,Wunderground v.1.15,2013-04-11 03:40:00,
2013-04-10 23:45:00,64.2,57.5,30.03,SSE,155,0.0,0.0,79,0.00,,,0.00,Wunderground v.1.15,2013-04-11 03:45:00,
2013-04-10 23:50:00,63.8,57.5,30.03,SSE,155,0.0,0.0,80,0.00,,,0.00,Wunderground v.1.15,2013-04-11 03:50:00,
2013-04-10 23:55:00,63.4,57.5,30.04,SSE,155,0.0,1.0,81,0.00,,,0.00,Wunderground v.1.15,2013-04-11 03:55:00,